This demonstration page uses our WeatherBlox Daily Observations layout. Learn more.

Left ArrowRight Arrow

36.17497, -115.13722

Hourly Observations for June 15, 2019

Temp ( °F °C ) Dew Point ( °F °C ) Humidity (%) Winds ( mph kmh ) Pressure ( in mb ) Visibility ( mi km ) Precip ( " mm )
12:53 am 00:53 Clear 80 26.7 43 6.1 27 27 NW 3 6 29.76 1008 10 16 0.00 0.00
1:53 am 01:53 Clear 81 27.2 43 6.1 26 26 WSW 5 7 29.76 1008 10 16 0.00 0.00
2:53 am 02:53 Clear 79 26.1 43 6.1 28 28 Calm 29.76 1008 10 16 0.00 0.00
3:53 am 03:53 Clear 79 26.1 41 5 26 26 N 9 15 29.77 1008 10 16 0.00 0.00
4:53 am 04:53 Clear 79 26.1 41 5 26 26 NNW 8 13 29.79 1009 10 16 0.00 0.00
5:53 am 05:53 Sunny 79 26.1 41 5 26 26 NW 7 11 29.81 1009 10 16 0.00 0.00
6:53 am 06:53 Sunny 82 27.8 41 5 23 23 NNW 7 11 29.82 1010 10 16 0.00 0.00
7:53 am 07:53 Sunny 85 29.4 42 5.6 22 22 WNW 6 9 29.83 1010 10 16 0.00 0.00
8:53 am 08:53 Sunny 88 31.1 41 5 19 19 ENE 3 6 29.84 1011 10 16 0.00 0.00
9:53 am 09:53 Sunny 90 32.2 43 6.1 19 19 ENE 5 7 29.84 1011 10 16 0.00 0.00
10:53 am 10:53 Sunny 93 33.9 43 6.1 18 18 SSE 6 9 29.83 1010 10 16 0.00 0.00
11:53 am 11:53 Sunny 95 35 43 6.1 17 17 undefined N/A 29.83 1010 10 16 0.00 0.00
12:53 pm 12:53 Sunny 96 35.6 42 5.6 15 15 VRB 5 7 29.80 1009 10 16 0.00 0.00
1:53 pm 13:53 Sunny 98 36.7 41 5 14 14 Calm 29.78 1008 10 16 0.00 0.00
2:53 pm 14:53 Sunny 98 36.7 41 5 14 14 SW 7 11 29.75 1008 10 16 0.00 0.00
3:53 pm 15:53 Sunny 102 38.9 40 4.4 12 12 W 8 13 29.72 1007 10 16 0.00 0.00
4:53 pm 16:53 Sunny 100 37.8 38 3.3 12 12 SW 9 15 29.70 1006 10 16 0.00 0.00
5:53 pm 17:53 Sunny 101 38.3 38 3.3 11 11 Calm 29.68 1005 10 16 0.00 0.00
6:53 pm 18:53 Sunny 100 37.8 37 2.8 11 11 S 8 13 29.68 1005 10 16 0.00 0.00
7:53 pm 19:53 Sunny 98 36.7 39 3.9 13 13 S 8 13 29.68 1005 10 16 0.00 0.00
8:53 pm 20:53 Clear 96 35.6 40 4.4 14 14 S 10 17 29.69 1006 10 16 0.00 0.00
9:53 pm 21:53 Clear 94 34.4 40 4.4 15 15 SSE 9 15 29.71 1006 10 16 0.00 0.00
10:53 pm 22:53 Clear 91 32.8 41 5 17 17 N 7 11 29.70 1006 10 16 0.00 0.00
11:53 pm 23:53 Clear 88 31.1 43 6.1 21 21 NW 3 6 29.70 1006 10 16 0.00 0.00

Powered by AerisWeather